Theta_e
353 354 354 353 353 352 351 351 348 347 345 344 344 343 343 343 340 339 338 340 344 346 347 348 348 350 351 352 354 354 354 355 356 357 356 355 354 354 355 355 355 355 357 359 359 357 356 355 357 356 356 357 357 357 358 357 357 357 356 357 356 356 356 354 352 352 354 355 355 355 356 357 355 352 352 353 352 354 355 355 355 356 356 357 357
354 355 355 354 354 353 352 352 350 349 348 347 346 345 345 345 343 342 342 341 342 343 345 346 348 350 351 352 354 354 355 354 355 356 357 356 355 353 352 351 350 351 354 358 359 358 357 355 355 357 356 357 358 358 358 357 357 357 357 358 358 357 357 356 355 354 355 357 357 356 357 358 356 353 354 355 356 357 357 356 357 357 357 358 359
354 355 355 355 355 354 353 353 352 350 349 348 348 346 346 346 347 347 346 344 343 343 343 344 347 348 350 351 353 355 355 354 355 356 357 357 356 354 353 352 349 350 352 354 357 358 357 355 354 355 356 357 357 356 357 357 356 357 356 357 359 358 358 357 357 356 357 357 358 358 358 357 355 354 356 358 359 358 358 357 357 357 358 359 359
355 355 356 355 355 354 354 353 352 351 350 349 348 347 347 347 347 349 348 346 346 345 345 345 347 348 349 350 352 354 355 355 354 356 357 358 357 355 355 354 352 351 350 350 353 354 356 354 354 356 357 356 355 356 356 356 357 357 356 356 358 359 358 358 358 358 358 358 358 357 357 356 356 357 358 359 360 358 356 356 357 358 359 359 360
356 356 356 356 356 355 354 354 353 352 352 350 349 348 348 347 346 348 349 349 348 348 349 350 350 351 351 350 351 353 355 355 355 356 356 358 358 356 356 355 353 352 350 348 351 354 355 353 353 357 359 357 356 355 356 357 357 358 357 356 357 357 356 358 358 358 357 358 357 357 356 357 357 358 359 360 360 357 354 355 358 360 359 360 361
358 358 357 357 356 356 355 354 354 353 352 351 350 349 348 348 347 347 350 350 351 350 351 352 353 354 353 352 351 352 353 355 355 355 356 357 359 358 357 355 353 352 350 349 351 355 356 353 352 355 358 358 358 357 358 357 357 358 358 357 357 356 356 358 358 358 357 357 357 357 357 358 359 360 359 360 360 358 356 357 360 361 361 362 361
360 359 359 358 358 357 356 356 355 354 353 352 352 350 350 349 349 349 350 351 353 353 353 353 354 355 355 354 353 352 353 355 356 356 356 357 359 359 359 357 355 353 350 349 350 353 354 354 352 352 354 356 356 357 357 358 358 358 358 358 358 357 358 358 359 359 358 357 358 358 359 359 359 361 361 360 360 358 358 361 363 363 362 360 358
361 361 361 360 359 359 358 357 356 355 354 354 353 352 351 351 351 350 350 352 353 354 354 354 354 355 356 356 354 353 352 354 355 356 356 357 358 359 359 359 357 355 351 349 350 351 352 352 351 351 351 351 352 352 354 355 356 358 359 358 358 358 357 358 360 360 359 359 359 359 359 360 361 361 361 361 360 358 360 363 363 362 360 355 355
362 362 361 361 361 361 359 359 358 357 356 355 354 354 352 352 353 353 352 353 354 354 354 354 354 354 355 356 356 354 354 354 355 355 356 357 357 357 358 358 357 356 354 351 350 350 350 349 349 349 350 349 349 351 353 354 356 357 358 358 358 358 358 359 359 359 360 359 360 360 360 360 361 361 361 361 360 359 362 364 363 360 355 352 354
363 363 362 362 362 361 361 360 359 358 357 356 356 355 354 354 353 354 354 354 355 355 355 355 355 354 354 355 355 355 355 355 354 354 354 355 357 356 357 357 357 356 356 354 352 350 349 350 349 349 350 352 351 352 355 356 357 356 356 357 358 358 358 359 360 359 360 360 359 360 360 360 361 360 361 360 358 361 363 363 361 357 353 354 357
363 364 363 363 363 362 362 361 360 359 358 357 356 355 354 354 354 355 355 356 356 356 355 355 356 355 354 354 356 356 356 356 355 354 354 354 355 356 356 357 357 356 356 355 354 351 350 351 352 352 353 354 354 354 355 355 356 354 354 355 356 357 357 358 359 359 359 360 359 360 360 361 360 359 358 357 358 362 364 362 359 354 354 358 360
364 364 364 364 364 363 363 362 361 360 359 358 357 355 355 354 354 355 356 356 357 357 357 356 356 355 354 355 355 356 356 356 355 355 354 354 355 356 356 356 357 357 357 356 355 354 352 352 352 353 354 353 353 354 354 355 356 356 355 356 356 356 356 356 356 357 357 358 359 359 359 359 358 357 356 354 355 359 360 359 356 352 353 358 361
365 365 365 364 365 364 363 362 362 361 360 359 357 357 356 355 355 355 356 357 357 358 357 357 356 356 355 354 354 356 356 356 356 356 355 355 355 356 356 356 356 356 356 356 356 356 355 354 354 354 353 353 354 354 354 355 356 357 357 358 356 356 356 355 355 355 356 357 358 358 357 357 356 355 354 353 353 353 354 354 352 350 352 358 362
366 366 366 365 366 365 364 363 363 361 361 359 358 357 356 355 356 355 356 357 358 358 358 357 356 356 355 355 355 355 355 356 355 356 356 355 355 356 356 356 356 355 356 356 356 356 355 356 355 354 354 354 355 355 353 354 355 356 357 357 356 354 355 354 355 355 356 357 357 357 356 355 355 355 355 355 355 352 353 352 351 352 356 359 362
365 367 367 366 366 365 365 364 363 362 361 360 358 358 357 356 356 355 356 357 357 358 358 357 357 355 356 355 355 355 355 354 355 356 355 356 356 356 357 356 355 356 356 355 356 356 356 356 356 355 354 353 354 354 354 355 356 356 356 355 354 352 351 351 352 354 355 355 356 356 354 355 357 358 359 360 359 357 355 353 352 356 360 361 362
362 365 367 367 366 366 365 364 363 362 361 360 359 358 357 357 356 356 356 357 358 359 358 357 357 356 355 355 356 355 355 354 354 354 355 355 356 357 356 356 355 355 355 356 355 356 356 356 356 355 354 354 352 352 353 356 356 357 356 354 353 352 350 349 350 351 352 352 352 354 355 356 360 360 361 362 363 361 358 355 355 358 359 360 359
360 363 367 367 367 367 366 365 363 363 362 361 360 358 358 357 356 357 357 357 358 358 358 359 358 356 355 356 355 356 356 355 355 354 354 355 356 357 357 356 356 356 356 355 355 355 356 356 356 356 355 354 352 352 353 355 356 356 355 354 353 352 350 350 350 351 351 352 354 355 357 359 359 358 358 360 362 363 359 357 357 359 359 359 356
359 362 365 367 368 367 366 365 364 363 363 361 360 359 359 358 358 357 357 357 358 358 359 359 358 357 356 355 355 356 356 356 356 355 355 355 355 356 357 356 357 357 356 356 355 355 355 355 355 356 356 355 354 353 353 354 355 355 354 354 354 353 351 349 350 351 352 355 358 359 359 359 358 356 357 360 362 362 360 359 359 359 359 358 354
360 361 363 365 367 367 366 366 365 364 363 362 361 360 360 359 359 358 358 358 358 359 359 360 359 358 357 356 355 356 356 357 356 357 356 356 355 356 356 356 357 357 357 357 356 356 356 355 355 355 354 355 355 354 354 353 354 354 354 354 355 353 351 349 350 352 354 357 360 360 360 360 357 357 358 361 363 363 361 361 360 359 359 358 353
362 362 362 364 366 367 367 367 365 365 364 362 362 361 360 360 358 358 358 358 358 358 359 360 359 359 358 357 357 356 357 357 357 358 357 357 356 357 356 357 357 357 357 357 357 357 357 356 356 355 355 355 355 355 355 355 354 355 354 355 355 354 351 352 353 355 357 360 361 360 360 360 359 360 361 361 363 363 361 361 360 360 360 358 351
363 362 363 364 366 366 367 366 366 366 365 364 362 361 360 360 360 359 359 358 358 358 359 360 360 360 358 358 357 356 357 358 358 358 358 358 358 357 358 358 357 357 358 358 358 358 358 357 356 355 355 356 356 357 358 358 358 357 356 355 355 354 354 355 356 357 358 360 361 361 360 361 361 363 363 362 363 361 360 360 359 359 361 357 350
365 364 363 364 365 367 366 366 367 366 365 364 363 362 362 361 360 360 359 359 358 359 359 359 360 360 360 359 358 357 356 357 358 358 358 358 359 359 359 358 358 358 359 358 359 358 358 357 357 355 355 355 356 358 359 359 360 360 359 358 357 356 357 357 358 359 359 360 361 361 361 362 362 362 362 361 361 360 358 356 354 356 359 355 348
364 365 363 363 365 366 367 367 367 366 366 365 364 363 362 362 362 361 360 360 359 359 359 359 359 360 359 359 359 358 356 357 357 358 359 359 359 359 359 359 359 359 359 359 359 359 358 358 357 356 355 354 355 355 355 355 356 358 359 360 359 359 360 361 360 361 360 361 362 362 362 362 362 361 361 360 360 358 355 353 352 354 355 350 344
362 365 365 363 364 366 367 367 367 366 366 365 364 363 362 362 362 362 361 361 360 360 359 359 359 360 360 360 360 359 358 357 357 357 357 358 358 360 360 360 360 360 359 360 359 359 359 358 357 358 357 356 355 355 354 353 353 354 354 355 356 356 359 360 362 361 362 362 362 362 362 362 361 360 360 360 358 355 351 349 349 348 346 343 340
360 364 365 364 363 365 366 367 368 367 367 366 365 364 363 362 363 362 362 361 360 360 360 359 358 359 360 360 360 359 359 358 358 357 357 357 358 359 359 360 360 360 360 360 359 359 359 359 358 358 358 357 357 356 355 355 355 355 355 356 357 356 356 359 361 362 362 363 362 362 362 361 361 361 359 359 357 351 345 342 341 340 339 339 338
358 362 365 364 363 364 366 367 368 367 367 367 366 365 364 364 363 363 363 362 361 360 360 360 359 359 359 360 360 360 360 359 359 359 358 358 358 358 357 358 359 359 360 359 359 359 360 359 359 359 358 358 358 357 357 357 357 358 358 360 360 359 357 357 359 361 362 362 362 361 361 361 361 360 358 357 356 349 343 341 339 337 337 337 336
356 360 364 364 363 365 366 368 368 368 368 368 367 366 365 364 364 364 363 363 362 362 360 360 359 359 359 359 360 361 361 361 360 360 360 360 359 359 358 357 357 357 358 358 359 358 359 359 359 359 359 359 358 359 359 360 360 361 361 361 362 362 360 358 359 360 361 361 361 361 361 360 360 357 355 356 354 348 343 340 338 337 337 336 336
355 357 362 364 363 365 367 367 368 368 369 368 368 367 367 366 365 364 364 364 363 362 362 361 359 359 359 359 360 361 361 361 360 360 360 360 360 360 359 359 358 357 357 358 358 357 358 359 358 359 359 360 360 360 360 361 361 362 362 362 362 362 361 359 358 358 360 360 360 360 359 358 357 355 355 355 351 346 342 339 335 334 334 335 335
353 356 362 365 364 365 367 368 369 368 369 369 369 369 368 367 366 366 365 365 364 363 363 361 360 360 359 359 360 360 360 361 361 361 361 361 360 361 359 359 359 359 359 359 357 356 355 357 358 359 359 360 360 360 361 361 361 361 361 361 361 361 360 358 357 358 359 359 358 358 357 355 354 354 355 354 348 343 340 336 331 328 331 335 336
352 356 361 364 366 365 366 367 368 368 369 369 369 370 370 369 368 368 367 366 366 365 364 362 362 360 360 359 359 360 360 360 361 361 361 361 361 360 360 359 359 359 360 360 356 352 353 355 356 358 359 359 359 359 359 359 360 360 359 360 359 360 359 358 359 359 359 358 358 357 355 354 354 354 354 350 344 340 338 336 330 326 329 335 336
351 355 358 360 364 366 367 367 367 368 369 369 369 369 369 368 368 369 368 369 368 367 366 365 364 362 362 360 359 359 359 359 359 360 361 362 362 361 361 360 360 359 360 360 354 350 352 355 355 356 358 358 358 359 359 359 358 358 358 358 358 359 359 358 359 359 357 358 357 356 355 355 354 350 347 343 340 339 338 335 331 329 331 334 335
346 352 356 357 358 362 365 368 368 368 369 369 369 367 365 363 362 365 367 368 369 368 368 367 366 365 363 362 361 360 359 358 358 358 358 360 361 361 361 362 361 360 359 358 353 350 351 353 354 356 357 357 357 358 358 358 358 358 358 358 358 358 358 359 359 359 357 358 357 356 356 354 349 344 340 338 338 339 337 335 333 333 333 334 333
340 345 352 355 355 357 361 365 368 369 369 369 370 368 364 361 360 359 361 363 366 368 368 368 368 367 365 364 364 362 361 360 359 358 357 358 358 359 361 361 362 361 358 353 350 349 351 352 354 355 356 357 357 357 357 357 357 358 358 358 358 358 358 358 358 358 358 357 356 356 353 348 342 338 338 338 338 339 337 335 334 334 334 335 333
337 341 347 352 355 356 358 358 358 359 359 361 365 366 365 364 362 359 357 358 360 362 365 366 367 367 367 366 365 364 363 362 361 359 358 358 357 358 361 361 360 357 354 351 350 350 350 351 352 354 355 355 355 353 354 355 356 357 358 358 358 358 358 357 357 357 356 356 355 353 349 343 338 337 337 337 337 338 337 336 335 334 334 335 334
334 337 342 349 353 355 356 355 353 351 351 354 358 361 362 362 361 359 357 358 359 360 362 364 366 367 368 367 366 365 364 363 362 362 360 359 358 359 361 359 354 351 350 350 350 350 351 351 351 351 352 353 353 352 352 353 355 357 358 358 358 358 357 357 356 355 355 355 352 349 345 341 338 338 337 335 334 335 336 335 335 335 334 334 333
331 332 335 342 348 350 352 352 350 349 350 352 355 358 358 358 358 357 357 358 360 360 360 360 360 363 366 367 366 366 365 363 363 362 361 360 360 361 360 355 352 352 351 350 350 350 351 352 351 349 349 351 353 354 354 354 355 357 357 358 358 358 357 356 355 355 354 352 348 344 342 341 340 338 337 334 333 333 334 333 333 334 334 333 333
329 329 329 334 340 346 350 349 347 347 349 350 351 354 356 355 354 354 353 354 356 356 355 352 351 353 359 363 365 365 364 364 363 363 362 361 361 360 360 358 356 355 352 351 349 350 350 352 352 352 352 353 354 354 354 355 356 357 357 357 357 357 357 356 354 352 349 346 344 342 341 339 337 335 334 333 333 332 332 331 332 333 332 332 333
325 326 326 328 334 342 347 349 349 349 349 350 350 353 354 352 351 351 350 351 351 351 349 348 347 349 354 358 361 362 363 362 361 360 359 358 356 355 356 357 356 355 354 352 351 350 351 351 352 354 355 355 354 354 355 356 357 357 357 356 356 353 351 348 346 344 342 342 341 341 338 334 332 331 331 331 332 332 331 331 332 331 330 331 332
323 324 324 325 330 336 341 346 350 350 349 350 351 353 352 349 349 349 349 348 348 347 346 346 348 351 353 355 358 359 359 356 355 354 353 353 353 352 353 354 354 353 352 351 350 350 352 354 354 355 356 355 354 354 355 356 356 355 355 353 350 345 341 340 340 340 341 340 339 336 333 331 331 332 331 331 330 330 330 330 330 330 329 330 330
321 322 323 323 325 329 333 339 344 347 350 351 351 351 350 349 349 348 348 348 347 346 346 346 348 349 351 352 354 356 354 349 347 347 347 348 349 351 353 353 352 351 351 351 351 352 353 353 354 354 355 354 354 354 354 353 352 351 349 347 344 340 338 338 339 339 337 335 334 333 332 333 332 332 330 330 329 329 329 329 329 329 328 328 328
320 321 321 321 321 324 327 331 334 338 343 348 350 349 349 349 349 348 348 348 347 346 346 346 346 348 349 350 351 353 352 348 345 344 345 346 347 348 349 348 348 348 348 347 348 348 349 348 349 349 350 350 349 349 349 348 348 347 345 342 340 338 337 336 336 335 333 332 332 333 333 332 331 331 331 330 329 329 329 328 328 328 327 326 325
318 319 320 320 319 320 322 325 327 330 335 341 347 349 349 349 350 350 349 348 347 345 343 342 342 345 348 346 346 348 347 345 343 342 341 341 340 340 340 341 341 342 342 343 343 343 344 343 342 342 342 342 342 342 342 342 342 342 340 338 337 336 334 334 333 332 332 332 332 332 332 332 332 331 330 329 329 328 328 328 326 325 325 324 323
317 318 318 318 318 318 318 319 322 324 327 331 338 345 348 348 347 348 347 344 343 341 338 336 337 340 342 342 343 343 340 337 336 334 333 332 332 331 331 332 332 333 334 335 336 337 338 338 337 336 337 337 337 338 338 337 337 337 336 334 332 331 330 329 329 329 329 329 329 329 329 329 329 328 327 327 326 325 325 324 323 322 322 321 320
315 315 316 316 316 317 316 317 318 319 320 323 328 336 341 341 341 342 341 339 338 337 335 334 334 335 334 334 335 333 330 328 328 325 323 322 321 319 320 321 323 325 327 327 328 330 333 333 332 331 332 332 333 334 333 333 332 332 332 331 329 328 326 325 325 325 324 325 325 325 325 325 325 324 324 323 323 323 322 321 321 320 319 318 318
313 313 314 314 314 315 315 316 316 317 317 317 319 323 328 330 331 332 332 332 331 330 329 329 329 328 326 326 326 324 322 322 321 319 317 316 314 313 313 314 315 317 319 321 323 325 327 327 327 326 326 326 327 329 329 328 328 329 328 328 327 326 324 323 323 322 322 322 322 322 322 322 322 322 321 321 321 320 319 318 318 318 317 316 315
312 312 312 312 312 313 313 314 315 316 316 315 314 315 318 320 320 321 322 321 321 321 321 321 321 321 320 319 319 318 317 316 315 314 313 312 311 310 311 312 314 315 315 316 318 320 321 321 322 322 321 320 321 323 323 323 323 324 324 325 325 323 322 321 321 320 320 320 320 320 320 320 319 319 319 319 319 318 317 316 316 316 315 314 314
311 311 310 310 310 310 311 311 312 313 314 314 313 312 313 314 315 315 315 315 315 315 314 314 314 314 314 313 313 312 312 311 310 309 308 306 306 306 307 309 311 312 311 312 314 315 315 316 317 316 315 315 316 316 317 317 318 319 320 320 320 320 319 319 319 319 319 319 319 319 320 319 318 318 318 318 318 317 316 316 315 315 314 314 313
309 309 309 309 309 308 309 309 309 310 310 311 312 311 311 311 311 311 311 311 311 311 310 310 310 309 309 308 308 308 307 307 306 305 304 303 303 304 306 307 307 307 308 309 310 310 311 312 311 311 311 311 311 311 312 313 314 314 315 316 316 316 316 317 317 317 318 318 318 318 318 317 317 316 316 316 316 315 314 314 313 313 313 313 313
308 308 308 308 308 307 307 307 307 307 308 308 308 309 309 309 309 309 309 309 309 309 308 308 308 307 307 306 306 305 304 304 303 302 302 302 302 303 305 306 306 306 307 307 306 306 306 307 307 308 309 309 309 309 309 310 310 310 311 311 312 312 313 314 314 315 315 315 315 315 315 315 314 314 313 313 313 312 311 312 311 311 311 311 310
307 307 307 307 306 306 306 306 306 306 306 306 306 306 306 307 307 307 308 308 307 307 307 307 306 307 306 306 305 305 304 303 302 301 300 300 299 300 301 302 302 302 302 302 301 302 302 302 303 304 305 306 306 306 307 308 309 309 309 309 309 310 311 312 312 313 313 314 314 314 314 313 311 309 308 308 308 308 308 308 308 308 307 306 305
306 306 305 305 305 305 305 305 305 305 305 305 305 305 305 305 305 305 305 305 305 305 305 305 304 304 304 303 303 303 302 301 300 300 299 298 298 298 298 299 299 299 299 299 299 299 299 298 298 299 300 300 300 301 302 304 305 305 306 307 307 308 308 308 308 308 308 309 309 309 309 307 304 302 301 302 303 304 304 304 304 304 303 303 303
Wind_Speed
44 43 43 42 41 41 42 42 42 41 41 40 40 41 42 41 41 41 39 38 37 35 34 34 33 32 31 31 31 31 30 30 30 30 29 29 28 27 27 26 25 23 22 20 18 18 18 19 19 16 12 11 11 10 9 8 7 7 8 9 9 8 8 9 10 11 14 14 13 13 14 15 15 15 15 16 16 16 16 15 15 15 15 14 13
44 43 43 42 43 43 42 42 42 41 40 39 40 40 40 40 41 40 39 39 39 38 37 36 35 34 33 33 34 33 32 32 32 31 30 30 29 28 27 27 26 25 24 22 20 19 19 20 20 19 16 14 14 13 12 12 11 11 10 11 12 12 11 12 11 11 14 17 17 17 16 15 15 15 15 17 17 17 16 14 13 13 13 12 13
43 43 42 42 43 43 42 42 42 41 40 39 39 40 40 39 39 39 39 39 39 39 39 38 38 37 36 35 35 35 34 33 33 32 32 31 30 29 27 26 26 25 25 25 24 22 20 20 20 20 18 18 18 17 17 16 15 15 14 13 14 14 14 14 14 13 15 18 18 18 17 15 15 16 17 17 17 17 16 16 15 14 12 13 14
42 42 41 42 42 42 41 41 41 41 40 40 39 39 39 39 38 38 39 39 38 39 39 39 38 38 37 36 35 36 36 35 34 33 33 32 32 31 29 28 27 26 25 26 25 24 23 22 21 20 18 19 20 19 19 18 17 17 16 15 15 14 14 15 16 16 17 18 19 19 17 15 16 18 19 18 17 17 18 19 18 16 14 13 14
41 41 41 40 40 41 42 41 41 41 41 40 40 40 39 38 37 37 38 38 38 38 38 38 38 38 37 37 36 36 36 36 35 34 34 33 33 32 32 30 29 27 26 25 25 24 23 23 22 21 19 20 20 21 20 19 19 18 17 17 16 16 15 14 15 16 18 19 20 20 17 16 17 19 19 17 17 19 20 19 18 17 15 12 11
40 40 40 40 39 40 41 41 41 42 42 41 41 40 39 38 37 37 38 38 37 37 38 38 38 38 38 38 37 37 37 37 37 36 35 34 34 33 33 32 31 30 28 27 25 25 24 23 23 23 23 22 22 22 21 20 20 19 18 17 16 16 16 16 15 15 17 18 20 20 19 18 19 19 18 16 17 21 22 19 16 14 11 8 10
39 39 39 39 39 40 41 41 41 41 42 42 41 40 39 38 38 38 38 38 38 37 37 38 38 38 39 39 39 39 38 37 37 36 35 34 34 34 33 33 32 31 30 29 27 26 25 24 24 23 24 25 24 24 23 22 21 20 20 19 18 17 17 17 17 17 18 18 20 21 21 20 19 18 17 16 17 20 20 17 12 8 7 9 14
38 38 38 38 39 40 40 40 40 40 40 40 40 39 39 39 39 38 38 38 38 38 38 38 38 38 38 39 40 40 39 38 38 37 36 35 34 34 34 33 33 32 32 31 30 29 28 27 26 25 24 24 25 25 24 23 22 22 21 20 19 19 19 19 19 19 19 20 21 22 21 20 19 17 16 16 17 18 15 10 7 7 11 16 17
37 36 37 38 38 39 39 38 38 39 39 39 39 39 39 38 38 38 38 39 39 39 38 38 38 38 38 38 39 40 39 39 39 38 37 36 34 34 34 34 33 33 32 32 31 31 30 29 28 27 26 24 24 24 23 23 22 23 23 22 21 21 21 21 21 21 20 20 21 22 20 20 20 17 15 15 15 16 10 5 6 11 16 20 19
35 36 35 36 37 36 37 37 37 37 38 38 39 39 38 38 38 38 39 39 39 38 38 37 37 38 38 38 38 39 39 39 40 40 39 38 36 35 34 35 34 33 32 32 32 32 31 30 29 28 27 26 25 24 24 24 24 24 24 23 23 23 23 23 23 23 21 20 21 20 18 20 21 17 15 14 13 12 8 6 9 14 16 18 18
33 35 35 34 35 35 36 36 36 37 37 38 38 39 38 38 37 37 38 39 39 38 37 37 37 37 38 38 38 38 39 40 41 41 41 39 38 36 35 35 34 34 33 32 32 32 32 31 31 30 29 28 27 26 25 25 25 25 25 25 25 25 25 25 25 24 22 21 21 19 17 20 22 18 16 16 12 10 9 8 12 15 14 13 13
35 36 36 35 35 36 36 36 36 37 37 38 38 38 38 38 37 37 37 38 38 38 37 37 37 37 37 37 38 38 39 41 42 42 42 41 39 38 36 35 34 34 34 33 33 33 32 32 32 31 31 30 29 27 26 25 25 25 26 26 27 27 27 27 27 26 25 23 22 20 19 20 22 21 20 18 14 11 12 13 14 15 14 12 11
37 37 37 37 37 37 37 37 37 37 38 38 38 38 38 38 38 38 37 37 37 37 38 38 37 37 37 37 37 38 40 42 43 42 42 41 41 39 37 36 35 34 34 34 34 33 33 32 32 32 31 30 29 28 27 26 26 26 27 28 29 30 30 30 29 29 28 26 24 24 22 22 23 24 23 21 17 14 14 16 17 16 15 13 13
34 36 38 38 38 38 38 38 38 38 38 38 37 37 38 38 39 38 37 36 36 37 38 38 38 38 37 37 38 38 40 42 43 43 43 42 41 41 39 37 35 35 35 34 34 34 34 33 33 33 32 31 30 29 28 28 27 28 29 29 29 30 30 31 32 31 31 30 28 28 26 25 26 25 23 22 21 18 17 17 17 16 14 13 13
27 31 35 37 38 38 38 38 38 38 38 37 37 37 38 38 39 38 37 36 37 37 38 38 39 39 38 38 38 38 40 42 42 42 43 42 41 41 40 38 36 34 34 34 34 35 35 34 34 34 33 32 32 31 30 29 28 29 30 30 30 30 30 30 31 31 31 31 30 30 28 25 24 22 20 20 21 20 18 16 14 13 13 14 15
26 27 31 35 36 38 38 38 37 37 37 37 37 38 38 38 38 38 37 36 36 37 37 38 38 39 38 38 37 38 40 42 43 43 43 42 41 40 40 40 37 35 35 35 35 36 35 35 35 35 35 34 33 32 31 30 30 30 30 30 29 29 29 28 28 28 29 29 29 28 25 21 19 18 18 19 20 19 17 14 13 14 14 14 14
25 26 29 33 36 37 38 38 37 37 37 37 38 38 38 38 38 37 37 36 35 36 36 37 38 38 38 38 38 38 40 41 43 43 43 42 41 40 40 40 38 37 37 37 37 37 37 36 36 36 36 36 35 33 31 31 31 32 31 30 28 28 29 28 26 25 25 25 24 23 21 19 18 18 19 19 20 19 15 13 15 15 13 11 10
24 25 27 31 35 37 38 38 37 37 37 38 38 38 37 37 37 37 37 36 36 35 35 36 36 38 39 39 39 39 39 40 42 43 43 43 42 41 40 39 38 38 39 38 38 38 38 38 37 36 36 36 36 34 32 31 32 33 33 32 30 30 31 30 27 24 23 21 21 20 20 20 19 19 19 19 21 21 17 15 16 14 12 11 10
23 26 27 28 32 36 38 39 38 38 39 40 39 38 38 37 37 37 37 36 36 35 34 34 35 37 38 39 40 40 39 39 40 42 42 42 42 42 41 39 38 38 39 38 37 37 38 39 37 37 37 37 36 34 32 32 32 33 33 32 31 32 33 31 28 26 24 22 21 20 20 19 18 19 19 18 20 20 17 16 16 16 15 14 11
19 23 27 29 32 35 38 39 40 40 40 40 39 38 38 37 36 37 37 36 35 34 34 34 35 35 37 38 39 40 40 39 39 41 42 42 42 42 41 39 38 39 39 38 36 35 36 37 38 38 38 37 36 35 34 33 33 33 33 32 32 33 33 30 28 26 24 22 21 20 19 18 17 17 17 16 16 15 14 14 17 18 17 15 12
19 20 23 27 32 35 37 40 41 41 41 41 39 38 38 37 37 37 36 35 34 34 33 33 34 34 35 37 38 39 40 40 40 41 42 42 42 43 42 41 41 40 39 37 36 35 35 36 38 39 38 37 35 33 32 32 33 34 34 34 34 33 31 29 27 25 23 22 20 19 18 17 15 14 14 13 12 12 13 15 16 17 17 15 13
21 21 21 24 30 33 36 38 39 40 40 39 37 37 37 36 36 36 35 35 35 34 33 32 32 33 34 36 38 39 40 40 41 42 42 42 43 43 44 44 43 42 39 37 36 36 36 37 38 38 38 38 36 33 31 29 29 30 32 33 33 32 31 30 28 25 23 21 19 18 17 16 15 14 13 12 12 13 13 13 14 15 15 13 11
24 22 23 25 28 33 36 37 38 38 38 38 37 36 35 35 35 35 35 34 33 33 33 32 31 31 32 34 37 38 38 39 41 42 42 42 43 44 44 45 45 43 40 38 37 37 38 38 38 37 36 36 36 36 35 32 30 29 29 29 30 29 29 29 27 25 24 22 20 19 18 17 16 15 15 14 14 13 12 11 12 12 11 10 10
27 24 24 25 28 32 35 37 38 37 37 37 37 35 34 35 34 34 34 33 32 31 31 31 31 30 30 32 34 36 37 38 39 41 42 41 41 43 44 45 45 45 43 40 38 37 37 38 37 36 35 34 34 33 32 31 31 30 29 28 28 29 29 29 27 25 23 22 22 21 20 20 19 18 17 16 14 12 10 10 10 10 10 10 9
29 26 25 26 28 31 33 35 37 38 37 37 37 36 34 34 32 32 32 32 31 30 30 31 31 30 29 30 31 33 36 37 38 40 41 41 40 40 41 43 44 46 45 42 40 39 39 38 36 35 34 32 30 28 27 26 25 25 25 25 27 29 30 29 27 25 24 24 24 24 25 25 24 22 19 17 15 12 11 11 12 12 12 11 10
28 27 25 26 28 30 31 33 35 36 37 37 38 37 36 34 33 32 32 32 32 32 31 31 30 29 29 29 30 31 33 35 37 38 39 40 40 40 40 40 41 42 43 43 42 40 38 36 34 32 30 28 26 25 24 23 23 23 24 25 27 28 28 28 27 26 26 27 27 28 28 27 25 22 19 16 15 15 15 15 14 14 14 13 11
27 28 25 25 28 29 30 32 33 34 35 36 35 35 35 35 33 32 32 32 32 31 30 29 29 29 29 29 29 29 31 33 35 35 36 38 40 41 41 41 39 40 41 43 43 40 36 33 31 29 26 24 24 24 23 22 22 23 25 26 27 28 28 28 29 29 29 30 30 29 28 26 24 21 18 15 14 17 18 16 15 15 14 13 14
26 28 26 24 26 28 30 32 32 32 33 34 33 33 33 33 33 34 36 35 32 31 30 29 30 31 30 29 28 28 29 32 34 35 37 39 41 41 41 42 42 41 42 43 43 39 35 30 27 24 22 22 22 22 21 20 20 20 21 22 24 26 28 28 28 29 31 31 29 27 25 23 21 19 16 14 17 20 19 17 15 14 14 14 16
25 26 27 22 24 28 29 31 32 31 32 33 33 34 36 37 37 37 38 39 38 35 33 32 32 33 32 31 30 29 29 34 39 40 40 40 41 42 42 42 43 43 42 43 42 37 32 27 23 22 21 21 21 20 20 19 19 18 19 19 19 22 25 27 29 31 32 31 28 25 22 19 17 16 16 18 20 21 20 16 13 13 14 15 16
23 23 25 21 19 25 26 28 31 31 31 31 30 31 34 37 38 37 36 38 39 39 36 35 35 35 33 33 34 34 35 36 36 36 36 38 39 41 42 42 42 41 40 40 38 33 29 26 25 25 24 24 24 23 23 22 22 21 22 21 21 21 22 25 29 31 31 29 26 22 20 18 17 17 19 21 22 21 19 15 12 12 15 16 15
22 20 21 18 12 17 22 25 28 30 31 31 31 32 32 33 34 35 34 35 36 37 38 38 37 36 35 34 34 36 37 34 30 29 32 35 38 40 41 42 41 39 39 39 36 31 28 28 28 28 28 27 27 26 25 25 24 24 23 23 23 23 23 25 28 29 28 26 23 21 20 19 18 19 22 23 22 21 18 13 11 12 15 15 15
22 19 17 15 11 7 14 21 25 27 29 30 31 31 30 27 26 27 29 31 33 35 37 38 37 36 35 35 35 36 36 34 32 30 29 31 34 37 39 40 40 40 39 37 34 32 31 30 29 29 30 29 29 29 28 26 25 25 24 23 23 24 25 27 27 28 27 26 24 22 21 19 19 20 21 21 20 20 18 14 13 15 16 15 14
23 19 15 14 13 10 8 14 21 26 29 31 33 32 28 26 24 23 23 24 27 31 35 37 38 37 36 35 36 36 36 36 36 34 31 30 30 32 33 35 38 39 38 35 32 31 31 31 31 31 32 31 29 26 25 24 25 25 24 24 24 25 26 27 27 26 27 26 24 22 20 19 19 19 18 17 18 19 19 17 16 17 16 14 14
23 19 16 14 16 17 15 11 10 10 11 15 23 29 31 31 30 27 23 21 21 24 29 33 36 37 36 35 35 35 36 36 37 37 36 35 32 29 29 32 34 34 34 33 33 32 32 32 32 30 28 26 22 21 21 23 25 26 26 25 25 25 26 26 26 26 26 25 23 22 22 22 22 19 17 16 16 18 20 20 19 18 17 15 14
23 20 16 14 17 22 23 18 13 9 8 10 15 21 26 29 30 28 27 26 24 25 28 32 34 36 36 35 35 34 34 35 36 37 37 37 34 31 29 29 29 29 29 31 32 32 32 31 29 25 24 22 21 24 27 27 26 27 27 26 26 26 26 27 27 27 27 25 24 23 23 23 22 19 16 15 15 18 22 22 20 19 18 16 15
24 22 18 15 19 23 22 19 19 20 21 22 23 23 24 26 26 26 27 28 28 29 30 28 28 31 34 35 35 34 34 35 35 36 36 36 36 34 31 29 29 29 31 33 33 31 30 28 25 25 28 28 26 26 28 28 27 28 29 28 28 28 28 28 28 28 27 26 24 23 22 20 18 17 16 15 15 18 20 20 19 20 18 16 17
23 23 22 19 20 22 19 17 21 26 28 29 28 26 25 25 24 24 24 25 27 28 25 20 18 21 27 32 33 33 33 33 34 34 35 35 36 35 34 32 32 31 31 31 30 29 27 25 23 24 28 28 27 27 28 27 27 29 29 28 28 30 31 31 30 29 27 25 23 20 17 16 16 17 16 15 15 16 17 18 18 18 16 15 18
25 23 24 22 19 18 17 16 22 28 31 32 31 29 27 26 25 25 26 26 25 23 21 19 19 21 24 28 29 29 30 29 29 29 29 29 31 32 30 28 29 29 28 26 26 25 24 22 21 22 23 23 25 27 28 27 27 28 27 27 27 28 28 27 25 24 23 21 19 16 14 14 16 17 16 15 15 16 16 16 17 15 14 16 19
29 27 26 24 19 15 14 13 17 25 29 30 30 30 28 27 26 27 26 24 22 20 20 22 24 25 25 25 26 26 24 21 20 20 21 22 25 25 24 22 21 22 21 21 20 21 21 20 19 19 20 21 22 25 26 26 26 25 24 24 23 21 19 19 19 19 18 17 16 14 13 13 15 16 15 14 15 15 14 13 13 14 15 16 16
28 28 27 25 22 17 14 11 11 18 26 30 29 27 26 27 28 28 27 24 23 23 25 25 24 22 22 23 25 27 24 19 15 14 16 18 19 19 18 18 18 19 19 20 20 21 21 20 19 18 18 18 19 21 22 22 21 20 18 18 17 17 16 18 19 18 17 16 15 14 12 13 16 17 16 15 15 15 14 13 13 14 15 15 14
26 26 27 26 24 20 16 13 11 11 16 23 25 24 25 27 29 28 26 25 24 24 24 23 20 19 20 22 25 29 29 26 22 20 18 18 19 19 18 18 19 20 20 21 22 22 21 20 19 18 17 16 16 16 17 16 16 16 16 16 17 18 18 17 17 16 17 16 15 13 12 13 16 17 16 15 15 16 16 16 15 15 15 15 13
25 25 26 26 25 22 19 15 14 13 11 12 19 26 28 28 28 27 25 24 24 23 21 18 17 18 20 20 23 28 32 32 30 27 24 22 21 21 21 21 21 22 22 22 22 22 21 20 19 18 17 17 17 17 18 18 18 20 20 20 20 19 18 17 16 14 14 14 13 12 11 12 13 15 15 16 18 18 18 17 16 15 14 13 11
24 23 24 25 24 23 20 18 16 14 14 10 8 24 30 26 24 27 27 25 26 26 23 22 22 23 23 24 27 31 34 34 32 30 28 26 25 25 25 25 24 24 24 23 23 23 22 21 20 19 19 19 19 19 20 20 21 22 22 22 21 20 19 18 16 14 13 13 13 13 13 14 15 17 18 19 19 18 17 16 15 13 12 10 8
24 24 24 24 24 24 22 20 20 17 16 15 6 11 22 24 25 28 30 30 30 31 30 30 30 30 29 29 31 33 34 34 34 31 29 28 27 26 26 27 27 27 26 26 25 25 24 24 24 23 22 21 20 20 21 21 21 22 23 23 23 22 21 19 18 17 17 17 17 17 17 18 18 18 18 17 16 15 15 13 12 11 10 8 6
23 24 24 23 24 25 23 21 22 22 21 20 17 6 11 20 20 20 23 25 25 26 28 29 30 31 30 30 31 33 34 35 36 34 32 30 29 27 27 28 29 29 29 29 27 26 26 26 26 25 25 24 22 22 23 22 22 22 22 21 21 21 21 20 19 19 18 18 18 18 18 18 17 16 14 13 12 12 12 11 10 9 8 6 5
21 23 24 24 24 24 23 21 20 23 25 24 21 16 14 22 25 23 23 24 23 21 21 22 23 25 27 29 30 31 33 35 36 35 33 31 30 29 28 29 30 31 32 31 30 29 28 27 27 27 27 26 25 25 24 23 22 22 21 20 21 21 20 20 19 19 18 17 17 16 16 15 14 12 12 11 10 10 10 9 8 7 6 5 5
21 22 22 24 23 22 22 22 21 21 25 26 23 21 18 23 29 29 29 30 30 28 26 26 26 26 25 26 28 30 33 35 34 33 32 32 32 33 33 33 33 33 33 32 31 31 30 30 29 28 28 28 27 26 25 24 24 23 22 22 21 21 20 19 18 17 16 15 14 13 13 13 12 12 11 10 9 9 8 8 6 5 4 4 3
21 22 21 21 21 21 22 22 22 22 23 25 24 22 21 22 27 31 31 31 32 31 30 30 30 29 29 29 29 31 33 34 33 33 32 33 34 35 35 35 36 35 34 34 33 32 31 30 29 29 28 28 27 26 26 25 24 23 22 22 21 19 18 17 16 15 14 13 12 12 12 12 12 11 10 9 8 7 6 6 5 4 4 4 3
21 22 21 20 20 21 21 21 21 22 24 23 22 22 22 23 24 28 31 33 33 31 31 32 33 33 34 34 33 34 35 34 33 32 32 33 34 35 36 36 36 35 35 34 33 32 31 30 29 28 27 27 26 25 24 24 23 23 22 21 19 17 16 15 14 14 13 12 11 11 10 10 10 9 8 7 6 5 5 5 5 5 6 6 5
21 21 22 21 20 20 21 21 21 22 23 23 23 24 25 25 25 25 28 31 31 30 29 30 31 33 35 37 37 36 35 34 32 32 31 31 32 34 35 36 35 34 33 33 32 31 30 29 28 27 27 26 25 25 24 23 22 21 20 18 17 15 13 12 12 11 10 9 9 8 7 7 7 8 7 7 6 6 6 7 7 7 7 7 6
21 22 22 22 22 21 21 21 21 21 22 23 24 24 25 26 26 26 27 27 27 27 27 27 28 30 33 35 37 38 37 35 33 32 32 31 31 33 35 35 35 34 33 32 31 29 29 28 27 27 26 26 25 24 23 22 21 20 18 16 15 13 12 12 11 11 10 9 9 8 8 8 8 9 9 9 8 8 7 7 7 7 7 7 6
Wind_Direction
199 201 203 205 207 209 211 213 214 215 215 215 215 215 216 216 218 219 219 219 220 221 222 223 223 223 222 222 222 221 219 218 219 219 220 221 220 219 219 220 223 223 221 222 227 230 232 230 231 233 238 243 242 239 242 248 253 255 254 257 257 254 248 233 233 263 290 304 313 321 326 324 321 325 327 328 332 332 326 323 322 321 323 326 327
200 201 202 204 206 208 210 212 214 216 217 217 216 216 216 217 218 218 217 218 220 221 222 224 225 225 224 224 224 223 222 221 221 221 221 222 222 221 219 220 223 223 222 223 226 231 235 233 231 231 235 241 244 242 244 247 252 256 255 255 257 258 256 250 244 253 279 296 305 308 312 313 314 319 325 326 329 330 326 325 324 321 323 323 319
201 202 203 205 207 208 209 211 213 215 216 217 218 218 217 217 217 216 217 219 219 220 222 223 224 225 226 226 225 224 223 223 222 221 222 222 221 220 219 219 221 222 222 224 225 229 233 234 232 231 234 240 243 243 244 246 251 255 256 256 257 259 261 262 258 254 267 285 295 298 301 306 310 315 321 323 325 325 322 322 323 319 316 315 314
201 202 204 206 207 208 209 211 212 214 216 218 219 219 219 219 218 217 218 219 220 220 222 223 224 225 226 226 225 224 223 222 222 222 223 223 222 220 220 220 222 223 225 225 226 229 233 235 231 229 235 241 245 247 247 247 250 253 256 258 258 262 266 267 268 266 266 274 284 289 295 301 307 312 317 320 321 322 322 322 323 319 313 313 313
200 202 204 206 207 208 209 210 211 213 216 218 220 220 221 220 219 219 219 220 220 221 221 222 222 223 224 225 224 223 223 222 222 222 224 224 224 222 221 221 223 225 228 228 229 230 234 237 234 231 235 240 244 248 249 249 250 252 254 257 260 265 270 271 272 271 267 270 278 287 293 297 301 307 314 317 319 322 324 324 323 320 318 314 310
199 201 203 205 207 209 209 210 211 213 215 217 219 220 221 221 220 220 220 220 220 221 221 221 221 221 222 224 224 224 224 223 222 223 224 225 225 224 223 224 225 227 229 231 232 234 236 238 238 236 236 238 241 245 248 251 252 252 252 255 260 266 270 272 272 270 268 270 277 285 289 293 297 303 311 315 317 319 321 322 322 322 323 320 319
198 200 202 204 207 209 210 211 212 213 215 217 218 220 220 221 220 220 220 220 220 220 221 221 221 221 221 222 223 224 224 223 223 224 225 225 225 225 225 225 227 228 230 231 233 236 239 240 242 241 240 240 241 244 248 251 252 252 253 256 260 263 268 271 271 270 269 272 276 280 285 291 295 299 306 312 315 316 317 319 324 333 334 328 330
198 200 202 204 207 209 211 212 213 214 216 217 218 219 220 220 220 220 220 220 220 220 220 221 221 221 221 221 222 223 224 224 224 225 225 225 225 226 227 227 228 229 231 232 233 236 240 244 246 247 246 244 244 245 247 250 252 253 255 258 260 261 264 267 269 270 270 272 275 278 283 288 290 294 302 309 314 316 316 316 323 334 331 327 331
197 200 202 205 207 209 211 212 214 215 216 217 218 219 220 220 220 220 219 219 220 220 221 221 221 221 221 222 222 222 223 223 224 225 225 225 225 227 228 228 229 230 231 232 233 236 239 243 246 249 249 250 249 248 248 250 252 254 256 257 258 259 262 263 265 267 267 268 272 276 281 285 288 294 300 307 312 309 301 289 306 324 326 324 328
196 200 203 206 208 209 210 212 214 215 216 218 219 219 220 220 220 220 220 220 220 220 220 221 221 221 221 222 222 222 222 224 225 227 228 227 226 226 227 228 230 231 231 232 233 235 238 241 244 248 250 252 253 252 252 253 254 255 256 256 256 257 258 259 261 262 262 263 268 273 277 281 287 294 297 303 307 293 271 271 304 317 321 322 325
198 201 204 207 208 209 211 212 213 215 216 218 219 219 219 220 220 220 220 220 220 220 220 220 220 221 221 221 221 221 222 225 226 228 229 230 227 225 226 228 229 230 232 232 234 235 236 239 243 246 249 252 253 254 254 254 255 255 254 254 255 256 255 256 258 260 260 260 265 269 271 277 287 294 294 297 295 272 259 277 300 308 315 317 315
199 202 204 206 207 209 210 211 213 215 216 217 218 219 219 219 220 220 220 220 219 219 219 219 220 220 220 220 221 221 223 226 227 229 230 231 230 227 225 227 228 230 232 233 235 236 237 238 241 244 247 250 253 255 255 255 255 255 256 256 256 256 257 257 258 259 260 261 264 267 269 276 285 292 293 292 284 268 265 276 289 298 305 302 291
198 201 203 204 206 207 208 210 212 214 216 217 218 218 219 219 220 220 220 220 219 219 219 219 220 220 219 219 220 221 223 226 228 229 230 231 231 229 227 228 229 231 232 233 235 236 237 239 240 243 246 248 250 252 255 256 256 256 259 261 260 258 258 258 259 260 261 263 265 268 272 278 285 293 297 294 286 275 270 276 285 294 299 294 290
198 200 201 203 204 205 207 208 210 213 215 216 217 217 218 218 219 220 220 220 219 219 219 219 220 220 220 219 220 221 224 226 228 229 231 232 232 231 229 229 231 232 234 235 236 237 239 239 241 243 246 247 247 249 251 254 255 257 260 263 262 260 258 257 258 258 259 260 263 268 275 281 286 293 298 294 288 283 279 283 291 297 297 292 294
202 202 202 203 203 203 205 206 208 210 212 213 215 216 217 218 218 219 220 220 219 219 219 219 219 220 220 220 220 221 224 227 228 229 230 232 232 232 230 230 231 233 235 237 238 240 241 241 242 244 247 248 249 249 250 252 254 257 261 263 263 262 260 259 259 258 259 260 263 269 276 283 286 289 290 289 289 289 288 290 293 292 289 287 293
208 208 205 204 204 203 204 205 206 208 210 211 213 215 217 218 218 218 219 220 220 220 219 219 219 220 220 220 220 221 225 227 228 229 230 231 231 231 230 230 231 234 236 238 240 242 243 243 243 245 247 249 251 251 251 251 252 256 260 262 264 265 265 264 264 263 263 264 265 270 274 277 278 279 281 282 286 290 292 290 284 277 275 280 290
217 215 210 207 206 205 205 205 205 207 208 209 212 214 215 217 217 217 218 219 220 220 219 219 219 219 220 220 220 221 224 227 228 229 230 231 230 229 229 229 230 233 236 239 241 242 244 244 244 246 247 249 252 253 252 251 251 253 257 260 263 266 268 269 269 268 268 267 266 266 267 266 268 274 277 277 279 283 281 273 273 271 266 270 276
230 228 220 212 209 207 207 207 206 206 208 209 212 213 214 216 217 217 218 219 220 220 220 219 219 219 219 220 220 222 224 226 228 229 230 230 229 228 228 228 229 233 237 239 241 242 244 245 246 246 247 250 252 253 252 251 250 251 254 257 260 263 266 268 270 270 269 265 261 259 258 260 266 274 277 275 274 274 267 262 267 265 257 260 257
244 241 234 223 215 210 209 208 207 207 208 210 212 212 213 214 215 216 218 219 221 222 221 220 219 219 220 220 221 222 224 226 228 229 229 229 228 228 228 227 229 233 236 239 240 241 243 245 246 246 248 251 252 252 252 252 250 251 252 253 255 259 262 265 267 268 266 262 258 254 254 261 271 275 274 270 268 267 261 257 259 256 256 260 251
268 256 243 230 221 215 211 209 209 208 210 211 212 212 213 213 214 215 216 218 220 222 222 221 220 220 220 220 222 223 224 225 228 229 229 228 228 227 226 225 228 233 235 237 239 240 241 243 244 245 247 250 251 251 251 250 250 252 251 248 249 255 259 261 262 263 263 259 256 256 259 267 272 269 265 261 257 253 246 248 255 256 259 261 245
289 275 255 234 222 217 213 211 209 210 211 212 211 211 212 212 212 213 214 216 218 221 222 221 221 221 221 220 221 222 223 224 226 229 229 228 227 226 224 224 228 232 234 236 237 238 239 241 242 243 244 246 247 248 248 249 249 251 250 249 251 255 258 260 261 262 261 258 256 258 261 262 260 255 254 251 242 238 238 245 255 257 257 255 240
301 287 269 243 224 217 215 213 211 210 211 211 210 210 211 211 211 212 213 214 216 218 221 221 221 222 222 221 221 222 223 224 226 228 229 228 227 226 224 226 229 230 231 233 235 236 239 241 244 245 245 245 245 246 247 248 248 249 250 251 253 255 256 258 260 260 258 255 254 253 252 250 249 247 245 238 233 236 241 249 259 260 252 243 232
312 294 275 253 231 219 215 213 212 210 210 210 209 209 209 209 210 211 211 212 215 217 219 221 221 221 222 221 221 221 221 222 224 227 229 229 228 227 226 228 230 230 229 232 234 236 239 242 246 249 249 248 248 248 249 250 250 250 250 251 252 254 255 256 256 255 253 251 248 246 245 243 242 243 242 241 239 241 248 256 261 254 233 216 216
319 302 280 258 237 223 216 213 212 210 208 207 207 207 207 207 208 209 210 210 212 215 217 218 219 220 221 221 221 220 219 220 223 226 229 230 229 229 228 230 231 230 230 232 235 237 241 244 248 250 251 252 253 254 254 255 255 255 256 256 256 256 254 253 252 249 246 243 241 241 243 244 246 248 249 249 248 245 244 242 234 218 204 201 210
321 308 285 261 241 226 217 212 210 209 207 205 204 204 204 205 205 206 208 209 211 214 215 217 218 220 220 221 221 220 219 219 221 225 228 229 230 230 230 230 231 231 231 234 237 240 243 247 249 251 252 253 255 256 257 258 259 260 260 259 258 256 252 249 248 243 239 238 239 242 247 252 256 259 259 259 257 244 223 209 199 195 198 202 203
321 313 291 264 243 227 216 211 208 207 205 203 203 203 202 202 203 204 205 207 211 213 215 215 217 220 222 221 221 220 219 219 221 224 226 229 230 231 232 232 233 233 234 237 240 241 244 246 247 249 251 252 254 255 256 258 260 260 259 258 257 256 251 245 241 237 236 239 242 247 253 258 262 266 268 268 256 231 211 201 196 195 199 197 186
322 318 301 269 242 224 214 208 205 204 203 202 201 202 202 202 202 203 204 206 210 213 214 215 215 218 221 222 221 221 221 221 222 223 225 227 230 232 233 234 235 234 234 236 238 238 239 242 245 247 249 249 250 251 252 253 255 257 258 258 257 256 251 245 240 237 238 241 244 248 253 259 263 266 269 261 235 214 208 207 201 195 193 187 174
321 320 310 277 242 222 212 207 202 200 200 200 198 198 200 201 203 205 207 208 209 211 213 214 215 218 220 221 221 221 222 223 223 223 223 226 228 230 232 233 235 234 234 236 236 234 236 239 241 240 239 238 237 237 238 240 243 247 253 258 258 255 250 243 237 237 239 241 244 247 251 255 258 258 255 239 217 207 205 204 197 188 184 178 169
320 320 318 290 244 222 213 206 201 198 198 198 199 199 199 202 205 209 211 212 212 212 212 214 217 219 220 221 220 219 222 224 226 225 225 225 227 229 231 233 234 234 237 238 235 230 230 231 228 224 222 220 219 220 222 226 232 237 243 252 258 256 249 240 234 236 239 240 240 242 245 247 247 243 234 222 211 204 198 193 186 180 178 175 168
320 319 322 306 252 223 213 205 200 199 197 195 196 198 201 204 207 210 213 215 216 216 216 217 219 220 222 223 223 223 226 229 230 229 227 227 229 231 234 236 237 236 238 238 232 224 221 221 218 215 215 215 215 219 223 227 232 237 241 246 251 253 250 244 240 240 239 237 235 238 240 239 233 226 220 212 203 196 191 188 183 178 177 174 168
320 316 324 324 280 229 216 208 201 198 196 194 192 194 198 204 208 210 212 215 217 218 219 222 223 223 223 225 227 229 231 233 236 235 231 230 232 233 236 238 238 239 239 235 226 217 214 216 216 217 218 219 219 222 225 227 230 235 239 242 245 247 248 246 243 239 235 231 231 235 237 234 226 216 208 201 196 190 186 183 184 181 178 174 170
325 316 317 325 322 267 223 213 206 199 195 193 194 195 195 195 201 208 210 212 214 215 218 221 223 224 225 226 228 231 233 234 235 237 235 234 234 234 236 238 238 239 238 232 223 216 214 214 215 217 218 219 222 223 223 225 228 233 236 238 241 243 244 243 241 236 230 227 229 231 231 227 217 205 197 194 194 190 185 183 183 180 177 176 175
331 321 309 305 311 308 256 218 209 203 198 194 193 194 192 191 194 199 202 206 210 212 215 218 220 222 224 226 229 232 234 235 236 236 236 236 236 235 235 237 237 236 231 224 218 217 216 215 216 219 220 221 222 221 220 224 229 233 235 237 242 245 244 241 236 230 226 226 228 227 221 209 197 190 187 188 191 193 194 191 186 182 184 185 182
336 326 311 295 288 283 270 248 225 217 215 207 199 194 194 197 198 193 188 190 199 206 212 216 218 219 220 223 227 231 235 236 237 237 237 237 237 237 233 230 229 228 225 221 217 216 217 217 217 219 222 221 219 219 224 231 235 235 235 238 243 246 242 236 230 226 224 224 223 218 209 199 191 188 187 186 191 200 205 201 194 191 195 195 189
343 334 320 296 276 267 260 254 245 236 230 226 217 206 199 198 197 192 187 188 193 200 208 212 214 215 217 220 225 228 231 234 236 237 237 235 233 231 224 216 214 215 217 218 218 217 218 218 215 216 222 223 219 221 226 229 231 234 235 237 240 240 238 232 226 223 222 220 216 211 205 199 198 199 198 197 201 207 209 206 202 200 201 201 197
349 344 335 309 281 271 263 249 239 233 223 215 217 217 208 199 195 192 191 194 197 202 207 211 211 210 211 215 220 225 227 229 231 232 232 231 229 225 217 209 208 211 212 214 215 217 219 218 213 215 223 225 223 225 227 227 230 235 236 236 235 236 234 230 224 220 217 214 210 204 200 200 204 206 204 203 204 205 205 206 205 204 208 211 206
352 347 342 326 297 283 271 244 230 235 235 226 221 218 210 203 200 196 195 199 203 205 209 211 207 205 205 207 213 218 220 222 225 227 227 227 226 223 219 214 213 212 211 212 212 212 215 216 213 214 219 221 222 225 227 229 232 234 234 233 234 232 230 226 220 213 207 203 200 198 200 204 206 203 198 197 199 200 202 202 202 204 210 212 204
353 349 345 337 316 295 279 248 225 225 227 224 219 212 204 201 202 200 199 202 205 207 210 209 206 207 205 200 202 208 211 213 217 220 222 221 218 214 213 214 213 209 208 209 209 208 209 211 212 215 219 222 224 226 226 227 230 231 231 230 229 225 220 215 207 199 195 194 194 196 200 202 201 200 199 196 193 193 195 199 203 207 206 202 198
353 350 347 344 335 316 297 268 231 217 214 215 214 207 198 194 196 198 199 199 198 200 205 205 206 210 207 196 190 192 192 192 197 202 202 202 203 203 204 204 202 199 199 199 199 198 198 197 200 207 214 217 221 223 223 223 223 224 224 223 218 211 201 192 188 189 191 190 187 187 191 193 193 193 195 193 190 189 191 194 200 201 194 190 188
355 350 347 348 347 337 323 301 255 222 213 212 209 201 193 193 194 195 194 192 189 194 199 200 202 206 200 189 183 177 166 156 161 174 176 174 178 184 187 185 181 180 180 180 180 183 185 185 187 192 198 204 210 215 217 216 213 212 213 211 202 190 181 179 183 186 186 185 184 184 187 188 186 188 195 199 198 193 186 177 175 174 171 168 165
359 353 349 350 352 347 339 331 316 279 240 223 210 196 193 197 196 193 191 188 186 189 193 194 197 195 185 178 178 173 161 152 154 159 156 153 154 156 159 161 161 161 162 164 167 170 172 172 172 175 177 181 187 192 196 197 194 191 187 182 177 173 171 173 177 178 177 182 190 193 191 189 189 194 199 197 185 173 165 159 156 155 154 154 155
4 359 354 355 356 354 349 345 340 330 302 254 211 194 195 201 197 189 185 180 177 176 174 170 173 175 170 168 171 166 155 149 149 148 144 142 143 142 142 145 147 150 153 155 158 161 161 159 157 157 158 158 159 160 161 162 164 164 163 160 159 159 158 160 164 168 171 177 184 186 184 184 186 187 181 170 162 158 155 154 154 153 152 154 156
9 6 -0 359 0 359 358 359 1 359 350 333 220 193 193 194 186 176 172 166 162 160 153 145 144 147 150 153 156 151 142 137 137 136 134 134 134 132 134 137 139 141 144 146 147 150 151 149 145 144 143 144 146 148 148 149 151 154 154 151 148 145 143 145 147 148 152 156 160 160 159 157 157 157 154 152 153 152 150 149 149 149 150 152 154
14 10 5 3 3 1 3 11 18 18 14 6 356 184 175 167 161 160 158 155 154 153 148 145 143 141 139 140 139 135 128 126 126 124 121 120 120 119 122 126 129 132 134 135 136 140 142 140 137 136 135 137 141 144 144 144 146 147 146 145 142 138 136 135 135 135 138 142 143 143 143 143 144 144 144 146 148 147 144 143 144 142 143 145 145
21 14 8 7 7 2 2 14 27 33 34 24 9 21 122 126 129 136 138 138 140 140 140 140 140 136 130 127 125 123 120 119 118 116 114 113 112 111 113 116 119 121 122 124 126 130 131 131 130 129 128 128 132 135 136 137 140 141 142 142 141 137 133 134 134 135 137 140 140 139 139 139 139 140 140 141 144 142 137 135 136 135 133 129 122
30 22 12 10 11 7 3 10 28 43 48 39 18 12 59 88 90 90 95 99 100 102 106 110 113 116 117 117 117 116 114 113 112 113 113 113 113 113 114 115 116 116 116 117 120 121 121 122 124 123 122 123 125 127 128 130 131 133 135 137 138 137 135 136 138 138 140 140 139 139 138 136 135 136 135 133 134 133 128 125 125 123 119 112 99
39 34 21 13 14 15 11 11 22 40 54 55 40 25 40 73 85 87 88 91 92 91 89 89 90 92 94 98 101 103 104 105 106 107 109 111 112 113 113 114 114 114 113 114 116 116 116 117 118 118 118 119 119 119 121 122 123 125 128 130 132 132 133 135 139 141 142 142 141 142 143 141 136 135 135 134 134 132 129 126 123 117 112 106 93
44 43 34 21 17 20 21 19 22 32 46 57 57 46 43 59 78 85 86 87 90 91 89 89 89 87 85 86 88 91 95 98 101 103 106 108 109 111 111 111 111 111 110 109 110 111 112 114 115 115 115 114 113 113 114 115 117 119 121 122 124 125 128 132 136 138 140 143 144 144 145 143 139 137 136 135 133 131 128 127 125 121 121 121 114
48 48 43 33 25 25 27 28 30 36 41 48 56 59 54 54 65 78 84 86 88 89 91 92 94 94 94 93 91 91 92 94 95 98 101 104 106 108 110 109 109 109 108 108 108 108 109 110 112 112 112 111 110 109 110 110 110 111 110 111 113 116 120 125 128 128 130 133 133 133 134 134 133 133 132 131 134 135 136 137 137 136 136 134 126
53 51 49 43 35 30 30 32 36 42 47 48 51 57 60 58 58 65 77 84 87 90 92 96 99 102 103 103 101 99 98 97 98 99 100 101 103 106 108 108 108 107 107 107 108 108 108 107 108 108 108 108 108 108 108 108 108 107 107 108 111 115 120 122 122 123 126 128 127 128 130 127 123 124 125 128 132 134 132 130 131 130 128 121 109
57 56 56 52 44 38 35 36 38 42 48 52 53 54 59 62 62 64 68 75 80 85 89 92 94 97 99 101 103 104 103 103 104 105 105 104 105 106 108 109 109 108 108 108 109 109 108 107 106 106 106 106 106 106 106 106 106 108 110 114 117 119 121 121 120 121 123 124 123 124 123 119 118 119 120 119 119 117 112 108 108 108 106 98 89